Regional Weather Roundup
Issued by NWS

Home | Current Version | Previous Version | Text Only | Print | Product List | Glossary On
Versions: 1 2 3 4 5 6 7 8 9 10 11 12 13 14 15 16 17 18 19 20 21 22 23 24 25 26 27 28 29 30 31 32 33 34 35 36 37 38 39 40 41 42 43 44 45 46 47 48 49 50
346
ASUS44 KFWD 310203
RWRTX
NORTH TEXAS HOURLY WEATHER ROUNDUP
NATIONAL WEATHER SERVICE FORT WORTH TX
900 PM CDT MON MAY 30 2016

NOTE: "FAIR" INDICATES FEW OR NO CLOUDS BELOW 12,000 FEET WITH NO
SIGNIFICANT WEATHER AND/OR OBSTRUCTIONS TO VISIBILITY.

TXZ118-119-310300-
DALLAS/FORT WORTH METROPLEX

CITY           SKY/WX    TMP DP  RH WIND       PRES   REMARKS
DFW AIRPORT    MOCLDY    77  63  61 S6        29.89S
DALLAS LOVE    MOCLDY    80  64  58 S9        29.89S
FTW MEACHAM    CLOUDY    78  65  63 S7        29.91R
DAL-EXECUTIVE  CLEAR     76  66  71 E6        29.89F
FTW-ALLIANCE   MOCLDY    74  64  71 SE6       29.90R
FTW-NAS-JRB    CLOUDY    79  65  62 SE7       29.91R
FTW-SPINKS     CLOUDY    75  68  79 SE3       29.93R HAZE
ARLINGTON      CLEAR     79  65  62 S5        29.90S
GRAND PRAIRIE  CLEAR     78  64  61 SE3       29.91F
MESQUITE       CLEAR     76  70  83 S3        29.91S
LANCASTER      CLEAR     75  67  75 CALM      29.92R
$$

TXZ091>094-102>105-117-120-121-131>134-310300-
NORTH CENTRAL TEXAS

CITY           SKY/WX    TMP DP  RH WIND       PRES   REMARKS
SHRMAN/DENISON CLEAR     72  61  67 SE6       29.91S
BRIDGEPORT     CLEAR     74  69  85 S3        29.93R
DECATUR        CLEAR     74  66  76 SE3       29.92R
DENTON         CLEAR     76  65  68 SE6       29.90R
MCKINNEY       CLEAR     77  65  66 SE3       29.90S
GREENVILLE     CLEAR     75  70  83 CALM      29.91R
ROCKWALL       CLEAR     76  66  72 CALM      29.90R
TERRELL        CLEAR     76  67  73 S3        29.91R
WAXAHACHIE     CLOUDY    75  67  76 CALM      29.92S
CLEBURNE       CLOUDY    77  72  83 CALM      29.94R
GRANBURY       PTCLDY    79  68  70 E6        29.92R
$$

TXZ083>090-098>101-113>116-127>130-139>142-154-155-310300-
WESTERN NORTH TEXAS

CITY           SKY/WX    TMP DP  RH WIND       PRES   REMARKS
WICHITA FALLS  CLEAR     73  66  78 SE9       29.89R
WF-KICKAPOO    CLEAR     78  67  68 E10       29.90R
VERNON         CLEAR     77  63  60 SE5       29.91R
ABILENE        CLOUDY    79  70  74 SE7       29.92R
ABILENE-DYESS  CLOUDY    78  68  71 SE3       29.89S
MINERAL WELLS  CLOUDY    75  68  78 SE7       29.90R
STEPHENVILLE   CLOUDY    76  68  76 E5        29.95R
COMANCHE       PTCLDY    76  72  86 SE5       29.91S
BROWNWOOD      PTCLDY    77  70  78 SE7       29.92R
COLEMAN        CLOUDY    78  68  71 CALM      29.93R
$$

TXZ143>147-156>162-174-175-310300-
CENTRAL TEXAS

CITY           SKY/WX    TMP DP  RH WIND       PRES   REMARKS
WACO           CLEAR     76  67  73 E6        29.90S
WACO-TSTC      PTCLDY    77  66  69 CALM      29.90
WACO-MCGREGOR  CLOUDY    76  69  79 E6        29.90F
HILLSBORO      CLOUDY    76  70  81 SE3       29.92R
CORSICANA        N/A     80  69  69 CALM      29.92R
MEXIA          PTCLDY    77  68  72 S6        29.91R
HEARNE         CLEAR     78  69  75 SE3       29.92S
CAMERON        CLEAR     78  69  73 SE3       29.90S
TEMPLE         CLOUDY    76  68  76 SE7       29.91S
KILLEEN        CLOUDY    78  65  64 SE5       29.90S HAZE
KILLEEN-SKYLRK CLOUDY    79  66  64 SE7       29.91
FORT HOOD      CLOUDY    78  66  66 SE7       29.89S
GATESVILLE     CLOUDY    77  70  78 CALM      29.93R
HAMILTON       CLEAR     77  67  69 SE8       29.93R
LAMPASAS       CLOUDY    78  68  72 E3        29.92R
$$

TXZ095>097-106>112-122>126-135>138-148>153-164>167-310300-
EAST TEXAS

CITY           SKY/WX    TMP DP  RH WIND       PRES   REMARKS
PARIS          CLEAR     72  63  73 E6        29.91S
SULPHUR SPRNGS CLEAR     76  71  84 E3        29.93R
MOUNT PLEASANT CLEAR     74  73  96 CALM      29.91S
MINEOLA        CLEAR     75  72  88 CALM      29.91S
TYLER          MOCLDY    80  70  71 SW5       29.90S
LONGVIEW       CLEAR     76  70  82 S3        29.90R
MARSHALL       CLEAR     73  69  89 CALM      29.93R
ATHENS         PTCLDY    73  68  83 CALM      29.89S
PALESTINE      CLEAR     78  71  78 CALM      29.92S
JACKSONVILLE   CLEAR     77  70  81 S3        29.94S
CENTER         FAIR      76  74  93 CALM      29.92R
NACOGDOCHES    CLEAR     73  70  88 CALM      29.91S
LUFKIN         CLEAR     77  66  68 S6        29.92R
$$

SUPPLEMENTAL OBSERVATIONS (CENTRAL)

CITY           SKY/WX    TMP DP  RH WIND       PRES   REMARKS
$$

SUPPLEMENTAL OBSERVATIONS (WEST)

CITY           SKY/WX    TMP DP  RH WIND       PRES   REMARKS
$$

SUPPLEMENTAL OBSERVATIONS (EAST)

CITY           SKY/WX    TMP DP  RH WIND       PRES   REMARKS
$$

SUPPLEMENTAL OBSERVATIONS ARE A COLLECTION OF AUTOMATED INSTRUMENTS
THAT ARE MAINTAINED BY A VARIETY OF FEDERAL AND STATE AGENCIES.
CERTAIN ELEMENTS...SUCH AS HUMIDITY VALUES AND SUSTAINED WIND
SPEEDS...MAY BE APPROXIMATED.





USA.gov is the U.S. government's official web portal to all federal, state and local government web resources and services.